This is the latest recevied weather packets stored in our database for station/object KA3RQR. If no packets are shown the sender has not sent any weather packets the latest 1 day(s).
| Time | Temp. | Humidity | Pressure | Rain* | Wind** | Luminosity | Snow |
|---|---|---|---|---|---|---|---|
| 1778025617 | 25° C | 34% | 1009.9 hPa | 0 mm | 1.79 m/s, 156° | 1 W/m² | - |
| 1778025315 | 25° C | 33% | 1009.6 hPa | 0 mm | 1.34 m/s, 156° | 2 W/m² | - |
| 1778025011 | 25° C | 35% | 1009.7 hPa | 0 mm | 0.45 m/s, 138° | 3 W/m² | - |
| 1778024708 | 25.56° C | 33% | 1009.6 hPa | 0 mm | 0.45 m/s, 171° | 5 W/m² | - |
| 1778024405 | 25.56° C | 33% | 1009.7 hPa | 0 mm | 0.45 m/s, 136° | 6 W/m² | - |
| 1778024102 | 25.56° C | 32% | 1009.7 hPa | 0 mm | 0.89 m/s, 127° | 9 W/m² | - |
| 1778023800 | 25.56° C | 35% | 1009.6 hPa | 0 mm | 0.89 m/s, 217° | 16 W/m² | - |
| 1778023498 | 25.56° C | 33% | 1009.4 hPa | 0 mm | 0.89 m/s, 162° | 26 W/m² | - |
| 1778023194 | 26.11° C | 34% | 1009.6 hPa | 0 mm | 0.45 m/s, 178° | 36 W/m² | - |
| 1778022892 | 26.11° C | 34% | 1009.6 hPa | 0 mm | 0.45 m/s, 123° | 35 W/m² | - |
| 1778022590 | 26.11° C | 33% | 1009.6 hPa | 0 mm | 2.24 m/s, 167° | 31 W/m² | - |
| 1778022287 | 25.56° C | 35% | 1009.5 hPa | 0 mm | 0 m/s | 31 W/m² | - |
| 1778021983 | 26.11° C | 33% | 1009.7 hPa | 0 mm | 0.89 m/s, 163° | 32 W/m² | - |
| 1778021681 | 26.11° C | 33% | 1009.9 hPa | 0 mm | 0.89 m/s, 130° | 45 W/m² | - |
| 1778021377 | 26.67° C | 32% | 1009.6 hPa | 0 mm | 0.45 m/s, 147° | 57 W/m² | - |
| 1778021074 | 26.67° C | 32% | 1009.6 hPa | 0 mm | 0.45 m/s, 152° | 109 W/m² | - |
| 1778020771 | 26.67° C | 31% | 1009.6 hPa | 0 mm | 2.24 m/s, 111° | 142 W/m² | - |
| 1778020467 | 26.67° C | 31% | 1009.5 hPa | 0 mm | 0.45 m/s, 138° | 83 W/m² | - |
| 1778020164 | 26.67° C | 32% | 1009.7 hPa | 0 mm | 0.45 m/s, 216° | 72 W/m² | - |
| 1778019860 | 26.67° C | 31% | 1009.6 hPa | 0 mm | 1.79 m/s, 147° | 111 W/m² | - |
| 1778019556 | 26.67° C | 30% | 1009.5 hPa | 0 mm | 0.89 m/s, 166° | 67 W/m² | - |
| 1778019254 | 26.67° C | 31% | 1009.7 hPa | 0 mm | 1.34 m/s, 102° | 53 W/m² | - |
| 1778018951 | 26.67° C | 31% | 1009.6 hPa | 0 mm | 2.24 m/s, 134° | 58 W/m² | - |
| 1778018648 | 26.67° C | 31% | 1009.5 hPa | 0 mm | 1.34 m/s, 147° | 70 W/m² | - |
| 1778018345 | 27.22° C | 31% | 1009.5 hPa | 0 mm | 0.89 m/s, 107° | 85 W/m² | - |
* Rain latest hour (hover to see other rain measurements)
** Current wind speed in m/s (hover to see current wind gust speed)